LB9GJ Weather Reports


Display with metric or nautical units.
time (UTC)temp
F
wind
direction
speed
MPH
gust
MPH
rain 1hr
in
rain 24hr
in
rain mn
in
humidity
%
barometer
mb
20260503004502 35 330 6.0 0.0 0.00 0.00 0.00 59 1010.6
20260503003002 35 330 6.0 0.0 0.00 0.00 0.00 59 1010.6
20260503001501 35 330 3.0 0.0 0.00 0.00 0.00 59 1010.6
20260503000002 35 324 0.0 0.0 0.00 0.00 0.00 59 1010.6
20260502234502 34 324 3.0 0.0 0.00 0.00 0.00 59 1010.6
20260502233002 35 324 5.0 0.0 0.00 0.00 0.00 59 1010.6
20260502231502 34 324 0.0 0.0 0.00 0.00 0.00 59 1010.6
20260502230002 35 310 1.0 0.0 0.00 0.00 0.00 59 1010.6
20260502224501 35 310 0.0 0.0 0.00 0.00 0.00 59 1010.6
20260502223002 36 310 7.0 0.0 0.00 0.00 0.00 59 1010.6
20260502221501 36 312 7.0 0.0 0.00 0.00 0.00 59 1010.6
20260502220002 36 312 7.0 0.0 0.00 0.00 0.00 59 1010.6
20260502214502 36 312 0.0 0.0 0.00 0.00 0.00 59 1010.6
20260502213002 36 312 3.0 0.0 0.00 0.00 0.00 59 1010.6
20260502211501 36 312 0.0 0.0 0.00 0.00 0.00 59 1010.6
20260502210002 35 312 0.0 0.0 0.00 0.00 0.00 59 1010.6
20260502204501 36 312 2.0 0.0 0.00 0.00 0.00 59 1010.6
20260502203003 36 312 4.0 0.0 0.00 0.00 0.00 59 1010.6
20260502201501 37 312 6.0 0.0 0.00 0.00 0.00 59 1010.6
20260502200002 38 304 5.0 0.0 0.00 0.00 0.00 59 1010.6
20260502194502 39 304 5.0 0.0 0.00 0.00 0.00 59 1010.6
20260502193002 39 304 0.0 0.0 0.00 0.00 0.00 59 1010.6
20260502191501 40 304 0.0 0.0 0.00 0.00 0.00 59 1010.6
20260502190002 40 304 2.0 0.0 0.00 0.00 0.00 59 1010.6
20260502184501 39 280 0.0 0.0 0.00 0.00 0.00 59 1010.6
20260502183002 42 280 2.0 0.0 0.00 0.00 0.00 59 1010.6
20260502181501 41 206 4.0 0.0 0.00 0.00 0.00 59 1010.6
20260502163002 44 268 1.0 0.0 0.00 0.00 0.00 59 1010.6
20260502161502 43 268 6.0 0.0 0.00 0.00 0.00 59 1010.6
20260502151502 43 264 0.0 0.0 0.00 0.00 0.00 59 1010.6
20260502123001 43 256 5.0 0.0 0.00 0.00 0.00 59 1010.6
20260502121502 43 244 2.0 0.0 0.00 0.00 0.00 59 1010.6
20260502114502 43 244 5.0 0.0 0.00 0.00 0.00 59 1010.6
20260502113002 43 244 7.0 0.0 0.00 0.00 0.00 59 1010.6
20260502111502 46 244 6.0 0.0 0.00 0.00 0.00 59 1010.6
20260502110002 42 244 7.0 0.0 0.00 0.00 0.00 59 1010.6
20260502104502 45 244 7.0 0.0 0.00 0.00 0.00 59 1010.6
20260502103001 47 256 6.0 0.0 0.00 0.00 0.00 59 1010.6
20260502101502 45 256 7.0 0.0 0.00 0.00 0.00 59 1010.6
20260502091502 46 272 8.0 0.0 0.00 0.00 0.00 59 1010.6
20260502071502 49 296 4.0 0.0 0.00 0.00 0.00 59 1010.6
20260502070002 47 296 8.0 0.0 0.00 0.00 0.00 59 1010.6
20260502064502 47 296 7.0 0.0 0.00 0.00 0.00 59 1010.6
20260502063002 51 288 7.0 0.0 0.00 0.00 0.00 59 1010.6
20260502061502 50 288 6.0 0.0 0.00 0.00 0.00 59 1010.6
20260502060002 48 288 10.0 0.0 0.00 0.00 0.00 59 1010.6
20260502054502 47 284 10.0 0.0 0.00 0.00 0.00 59 1010.6
20260502053001 46 284 7.0 0.0 0.00 0.00 0.00 59 1010.6
20260502051502 44 284 6.0 0.0 0.00 0.00 0.00 59 1010.6
20260502050001 44 284 8.0 0.0 0.00 0.00 0.00 59 1010.6
20260502044502 42 278 7.0 0.0 0.00 0.00 0.00 59 1010.6
20260502043001 40 278 4.0 0.0 0.00 0.00 0.00 59 1010.6
20260502041502 36 278 1.0 0.0 0.00 0.00 0.00 59 1010.6
20260502040002 35 276 2.0 0.0 0.00 0.00 0.00 59 1010.6
20260502034502 34 276 0.0 0.0 0.00 0.00 0.00 59 1010.6
20260502033001 34 276 0.0 0.0 0.00 0.00 0.00 59 1010.6
20260502031502 34 276 0.0 0.0 0.00 0.00 0.00 59 1010.6
20260502030001 34 272 0.0 0.0 0.00 0.00 0.00 59 1010.6
20260502024502 35 272 0.0 0.0 0.00 0.00 0.00 59 1010.6
20260502023001 37 272 1.0 0.0 0.00 0.00 0.00 59 1010.6
20260502021502 38 256 4.0 0.0 0.00 0.00 0.00 59 1010.6
20260502020002 40 256 5.0 0.0 0.00 0.00 0.00 59 1010.6
20260502014502 40 256 8.0 0.0 0.00 0.00 0.00 59 1010.6
20260502013001 40 256 5.0 0.0 0.00 0.00 0.00 59 1010.6
20260502011502 38 256 5.0 0.0 0.00 0.00 0.00 59 1010.6
20260502010001 39 256 0.0 0.0 0.00 0.00 0.00 59 1010.6